Lone Rock, WI

12:59 AM CDT on April 24, 2018 (GMT -0500)
Tri-County Regional

Weather History for KLNR - January, 2013

Change the Weather History Date:

Sunday, January 27, 2013

  Actual Average Record
Temperature  
Mean Temperature 28 °F -  
Max Temperature 34 °F 26 °F 55 °F (2002)
Min Temperature 23 °F 11 °F -11 °F (2005)
Degree Days  
Heating Degree Days 37    
Moisture  
Dew Point 24 °F    
Average Humidity 80    
Maximum Humidity 96    
Minimum Humidity 60    
Precipitation  
Precipitation 0.08 in - - ()
Sea Level Pressure  
Sea Level Pressure 30.05 in    
Wind  
Wind Speed 9 mph (ESE)    
Max Wind Speed 20 mph    
Max Gust Speed -    
Visibility 4 miles    
Events Rain , Snow    
Averages and records for this station are not official NWS values.
T = Trace of Precipitation, MM = Missing Value Source: NWS Daily Summary

Daily Weather History Graph

Daily Weather History Graph

Search for Another Location

Airport or City:

Astronomy

Jan. 27, 2013 Rise Set
Actual Time 7:20 AM CST 5:06 PM CST
Civil Twilight 6:50 AM CST 5:37 PM CST
Nautical Twilight 6:15 AM CST 6:11 PM CST
Astronomical Twilight 5:42 AM CST 6:45 PM CST
Moon 6:03 PM CST (1/27) 7:11 AM CST (1/27)
Length of Visible Light 10h 46m
Length of Day
9h 45m
Full, 100% of the Moon is Illuminated
Jan 27
Full
Feb 3
Last Quarter
Feb 10
New
Feb 17
First Quarter
Feb 25
Full

Hourly Weather History & Observations

Time (CST) Temp. Windchill Dew Point Humidity Pressure Visibility Wind Dir Wind Speed Gust Speed Precip Events Conditions
12:56 AM 23.0 °F 15.8 °F 12.0 °F 63% 30.31 in 10.0 mi ESE 5.8 mph - N/A   Clear
1:56 AM 24.1 °F 16.0 °F 12.9 °F 62% 30.30 in 10.0 mi East 6.9 mph - N/A   Mostly Cloudy
2:56 AM 25.0 °F 17.1 °F 14.0 °F 63% 30.28 in 10.0 mi East 6.9 mph - N/A   Partly Cloudy
3:56 AM 25.0 °F 15.5 °F 14.0 °F 63% 30.25 in 10.0 mi East 9.2 mph - N/A   Partly Cloudy
4:56 AM 26.1 °F 18.4 °F 14.0 °F 60% 30.23 in 10.0 mi East 6.9 mph - N/A   Clear
5:56 AM 26.1 °F 19.4 °F 15.1 °F 63% 30.22 in 10.0 mi East 5.8 mph - N/A   Mostly Cloudy
6:56 AM 27.0 °F 20.5 °F 15.1 °F 61% 30.22 in 10.0 mi ESE 5.8 mph - N/A   Overcast
7:56 AM 28.0 °F 20.8 °F 16.0 °F 61% 30.23 in 8.0 mi SE 6.9 mph - N/A   Partly Cloudy
8:56 AM 28.9 °F 20.4 °F 17.1 °F 61% 30.22 in 7.0 mi ESE 9.2 mph - N/A   Overcast
9:56 AM 30.0 °F 23.2 °F 18.0 °F 61% 30.21 in 6.0 mi SE 6.9 mph - 0.00 in   Overcast
10:56 AM 30.0 °F 21.7 °F 19.9 °F 66% 30.17 in 4.0 mi SE 9.2 mph - 0.00 in   Overcast
11:37 AM 30.2 °F 20.8 °F 21.2 °F 69% 30.12 in 2.0 mi ESE 11.5 mph - 0.00 in Snow Light Snow
11:49 AM 28.4 °F 19.1 °F 23.0 °F 80% 30.12 in 4.0 mi ESE 10.4 mph - 0.00 in   Haze
11:56 AM 30.0 °F 21.7 °F 21.9 °F 72% 30.13 in 4.0 mi ESE 9.2 mph - 0.00 in   Overcast
12:10 PM 30.2 °F 20.8 °F 24.8 °F 80% 30.10 in 2.5 mi East 11.5 mph - 0.01 in   Overcast
12:16 PM 30.2 °F 20.2 °F 24.8 °F 80% 30.09 in 3.0 mi East 12.7 mph - 0.02 in Rain Light Freezing Rain
12:28 PM 30.2 °F 20.2 °F 24.8 °F 80% 30.08 in 2.5 mi ESE 12.7 mph - 0.02 in Rain Light Freezing Rain
12:56 PM 30.0 °F 21.1 °F 24.1 °F 79% 30.08 in 2.0 mi ESE 10.4 mph - 0.04 in Rain Light Freezing Rain
1:13 PM 30.2 °F 19.8 °F 24.8 °F 80% 30.06 in 2.0 mi ESE 13.8 mph - 0.02 in Snow Light Snow
1:27 PM 30.2 °F 19.8 °F 24.8 °F 80% 30.04 in 4.0 mi ESE 13.8 mph - 0.02 in   Overcast
1:56 PM 30.0 °F 20.0 °F 25.0 °F 82% 30.05 in 4.0 mi East 12.7 mph - 0.03 in   Haze
2:07 PM 30.2 °F 19.3 °F 24.8 °F 80% 30.03 in 2.5 mi ESE 15.0 mph - 0.00 in Rain Light Freezing Rain
2:28 PM 30.2 °F 18.5 °F 26.6 °F 86% 30.00 in 1.2 mi East 17.3 mph - 0.00 in Rain Light Freezing Rain
2:43 PM 30.2 °F 17.8 °F 26.6 °F 86% 29.97 in 1.0 mi East 19.6 mph - 0.00 in Rain Light Freezing Rain
2:56 PM 30.0 °F 19.1 °F 27.0 °F 88% 29.99 in 1.0 mi East 15.0 mph - 0.00 in Rain Light Freezing Rain
3:03 PM 30.2 °F 20.2 °F 26.6 °F 86% 29.98 in 1.2 mi East 12.7 mph - 0.00 in Rain Light Freezing Rain
3:32 PM 30.2 °F 20.2 °F 28.4 °F 93% 29.96 in 0.8 mi ESE 12.7 mph - 0.00 in Rain Light Freezing Rain
3:43 PM 30.2 °F 20.2 °F 28.4 °F 93% 29.95 in 1.5 mi ESE 12.7 mph - 0.00 in Rain Light Freezing Rain
3:56 PM 30.9 °F 22.2 °F 27.0 °F 85% 29.96 in 1.8 mi ESE 10.4 mph - 0.00 in   Overcast
4:22 PM 30.2 °F 21.9 °F 28.4 °F 93% 29.95 in 0.8 mi ESE 9.2 mph - N/A   Overcast
4:56 PM 30.9 °F 22.2 °F 28.9 °F 92% 29.95 in 0.8 mi ESE 10.4 mph - N/A   Overcast
5:04 PM 30.2 °F 21.9 °F 28.4 °F 93% 29.93 in 0.8 mi ESE 9.2 mph - 0.00 in Rain Light Freezing Rain
5:16 PM 30.2 °F 23.4 °F 28.4 °F 93% 29.93 in 1.5 mi ESE 6.9 mph - 0.00 in Rain Light Freezing Rain
5:56 PM 32.0 °F 24.8 °F 30.0 °F 92% 29.93 in 1.5 mi East 8.1 mph - 0.00 in Rain Light Freezing Rain
6:56 PM 33.1 °F 25.5 °F 30.0 °F 89% 29.92 in 1.8 mi East 9.2 mph - 0.00 in   Overcast
7:56 PM 33.1 °F 25.5 °F 30.9 °F 92% 29.89 in 1.5 mi East 9.2 mph - N/A   Overcast
8:56 PM 33.1 °F 26.9 °F 30.9 °F 92% 29.88 in 1.8 mi East 6.9 mph - N/A   Overcast
9:56 PM 33.1 °F 26.1 °F 30.9 °F 92% 29.85 in 1.8 mi East 8.1 mph - N/A   Overcast
10:30 PM 33.8 °F 26.4 °F 30.2 °F 87% 29.83 in 2.0 mi East 9.2 mph - N/A   Overcast
10:40 PM 33.8 °F 27.0 °F 30.2 °F 87% 29.83 in 1.8 mi East 8.1 mph - N/A   Overcast
10:56 PM 33.1 °F 26.1 °F 32.0 °F 96% 29.84 in 1.8 mi East 8.1 mph - N/A   Overcast
11:56 PM 34.0 °F 28.8 °F 32.0 °F 92% 29.83 in 2.0 mi East 5.8 mph - 0.01 in   Overcast